Time,TemperatureF,DewpointF,PressureIn,WindDirection,WindDirectionDegrees,WindSpeedMPH,WindSpeedGustMPH,Humidity,HourlyPrecipIn,Conditions,Clouds,dailyrainin,SolarRadiationWatts/m^2,SoftwareType,DateUTC
2013-10-21 00:02:00,56.0,21.0,-100.00,SE,125,0.0,5.0,25,0.00,,,0.00,0.000000,,2013-10-21 07:02:00,
2013-10-21 00:12:00,56.0,21.0,-100.00,SE,125,0.0,5.0,25,0.00,,,0.00,0.000000,,2013-10-21 07:12:00,
2013-10-21 00:22:00,56.0,21.0,-100.00,SE,125,0.0,5.0,25,0.00,,,0.00,0.000000,,2013-10-21 07:22:00,
2013-10-21 00:52:00,51.0,18.0,-100.00,SE,127,0.0,4.0,27,0.00,,,0.00,0.000000,,2013-10-21 07:52:00,
2013-10-21 01:02:00,51.0,18.0,-100.00,SE,127,0.0,4.0,27,0.00,,,0.00,0.000000,,2013-10-21 08:02:00,
2013-10-21 01:21:00,51.0,18.0,-100.00,SE,127,0.0,4.0,27,0.00,,,0.00,0.000000,,2013-10-21 08:21:00,
2013-10-21 01:52:00,51.0,19.0,-100.00,ESE,120,0.0,4.0,28,-99.99,,,0.00,0.000000,,2013-10-21 08:52:00,
2013-10-21 02:02:00,51.0,19.0,-100.00,ESE,120,0.0,4.0,28,-99.99,,,0.00,0.000000,,2013-10-21 09:02:00,
2013-10-21 02:11:00,51.0,19.0,-100.00,ESE,120,0.0,4.0,28,-99.99,,,0.00,0.000000,,2013-10-21 09:11:00,
2013-10-21 02:22:00,51.0,19.0,-100.00,ESE,120,0.0,4.0,28,-99.99,,,0.00,0.000000,,2013-10-21 09:22:00,
2013-10-21 02:53:00,50.0,21.0,-100.00,ESE,119,0.0,5.0,31,0.00,,,0.00,0.000000,,2013-10-21 09:53:00,
2013-10-21 03:03:00,50.0,21.0,-100.00,ESE,119,0.0,5.0,31,0.00,,,0.00,0.000000,,2013-10-21 10:03:00,
2013-10-21 03:13:00,50.0,21.0,-100.00,ESE,119,0.0,5.0,31,0.00,,,0.00,0.000000,,2013-10-21 10:13:00,
2013-10-21 03:22:00,50.0,21.0,-100.00,ESE,119,0.0,5.0,31,0.00,,,0.00,0.000000,,2013-10-21 10:22:00,
2013-10-21 03:52:00,50.0,22.0,-100.00,SE,134,0.0,6.0,33,0.00,,,0.00,0.000000,,2013-10-21 10:52:00,
2013-10-21 04:02:00,50.0,22.0,-100.00,SE,134,0.0,6.0,33,0.00,,,0.00,0.000000,,2013-10-21 11:02:00,
2013-10-21 04:12:00,50.0,22.0,-100.00,SE,134,0.0,6.0,33,0.00,,,0.00,0.000000,,2013-10-21 11:12:00,
2013-10-21 04:22:00,50.0,22.0,-100.00,SE,134,0.0,6.0,33,0.00,,,0.00,0.000000,,2013-10-21 11:22:00,
2013-10-21 06:52:00,48.0,23.0,-100.00,SE,128,1.0,5.0,37,-99.99,,,0.00,0.000000,,2013-10-21 13:52:00,
2013-10-21 07:02:00,48.0,23.0,-100.00,SE,128,1.0,5.0,37,-99.99,,,0.00,0.000000,,2013-10-21 14:02:00,
2013-10-21 07:11:00,48.0,23.0,-100.00,SE,128,1.0,5.0,37,-99.99,,,0.00,0.000000,,2013-10-21 14:11:00,
2013-10-21 07:22:00,48.0,23.0,-100.00,SE,128,1.0,5.0,37,-99.99,,,0.00,0.000000,,2013-10-21 14:22:00,
2013-10-21 08:21:00,47.0,23.0,-100.00,SE,132,2.0,5.0,38,0.00,,,0.00,0.000000,,2013-10-21 15:21:00,
2013-10-21 09:13:00,48.0,24.0,-100.00,SE,130,2.0,8.0,38,0.00,,,0.00,12.000000,,2013-10-21 16:13:00,
2013-10-21 09:53:00,55.0,25.0,-100.00,ESE,118,0.0,7.0,31,-99.99,,,0.00,115.000000,,2013-10-21 16:53:00,
2013-10-21 10:02:00,55.0,25.0,-100.00,ESE,118,0.0,7.0,31,-99.99,,,0.00,115.000000,,2013-10-21 17:02:00,
2013-10-21 10:12:00,55.0,25.0,-100.00,ESE,118,0.0,7.0,31,-99.99,,,0.00,115.000000,,2013-10-21 17:12:00,
2013-10-21 10:53:00,67.0,21.0,-100.00,NNE,20,0.0,4.0,17,-99.99,,,0.00,529.000000,,2013-10-21 17:53:00,
2013-10-21 11:02:00,67.0,21.0,-100.00,NNE,20,0.0,4.0,17,-99.99,,,0.00,529.000000,,2013-10-21 18:02:00,
2013-10-21 11:12:00,67.0,21.0,-100.00,NNE,20,0.0,4.0,17,-99.99,,,0.00,529.000000,,2013-10-21 18:12:00,
2013-10-21 11:21:00,67.0,21.0,-100.00,NNE,20,0.0,4.0,17,-99.99,,,0.00,529.000000,,2013-10-21 18:21:00,
2013-10-21 11:52:00,76.0,18.0,-100.00,SW,226,0.0,6.0,11,0.00,,,0.00,719.000000,,2013-10-21 18:52:00,
2013-10-21 12:02:00,76.0,18.0,-100.00,SW,226,0.0,6.0,11,0.00,,,0.00,719.000000,,2013-10-21 19:02:00,
2013-10-21 12:11:00,76.0,18.0,-100.00,SW,226,0.0,6.0,11,0.00,,,0.00,719.000000,,2013-10-21 19:11:00,
2013-10-21 12:21:00,76.0,18.0,-100.00,SW,226,0.0,6.0,11,0.00,,,0.00,719.000000,,2013-10-21 19:21:00,
2013-10-21 12:52:00,80.0,19.0,-100.00,WSW,244,2.0,5.0,10,0.00,,,0.00,869.000000,,2013-10-21 19:52:00,
2013-10-21 13:01:00,80.0,19.0,-100.00,WSW,244,2.0,5.0,10,0.00,,,0.00,869.000000,,2013-10-21 20:01:00,
2013-10-21 13:11:00,80.0,19.0,-100.00,WSW,244,2.0,5.0,10,0.00,,,0.00,869.000000,,2013-10-21 20:11:00,
2013-10-21 13:21:00,80.0,19.0,-100.00,WSW,244,2.0,5.0,10,0.00,,,0.00,869.000000,,2013-10-21 20:21:00,
2013-10-21 15:23:00,88.0,22.0,-100.00,West,259,4.0,8.0,9,-99.99,,,0.00,884.000000,,2013-10-21 22:23:00,
2013-10-21 15:53:00,88.0,25.0,-100.00,West,266,5.0,10.0,10,-99.99,,,0.00,766.000000,,2013-10-21 22:53:00,
2013-10-21 16:03:00,88.0,25.0,-100.00,West,266,5.0,10.0,10,-99.99,,,0.00,766.000000,,2013-10-21 23:03:00,
2013-10-21 16:22:00,88.0,25.0,-100.00,West,266,5.0,10.0,10,-99.99,,,0.00,766.000000,,2013-10-21 23:22:00,
2013-10-21 17:22:00,85.0,25.0,-100.00,West,279,8.0,15.0,11,-99.99,,,0.00,580.000000,,2013-10-22 00:22:00,
2013-10-21 17:53:00,83.0,25.0,-100.00,South,181,0.0,15.0,12,0.00,,,0.00,349.000000,,2013-10-22 00:53:00,
2013-10-21 18:02:00,83.0,25.0,-100.00,South,181,0.0,15.0,12,0.00,,,0.00,349.000000,,2013-10-22 01:02:00,
2013-10-21 18:12:00,83.0,25.0,-100.00,South,181,0.0,15.0,12,0.00,,,0.00,349.000000,,2013-10-22 01:12:00,
2013-10-21 18:21:00,83.0,25.0,-100.00,South,181,0.0,15.0,12,0.00,,,0.00,349.000000,,2013-10-22 01:21:00,
2013-10-21 18:52:00,71.0,25.0,-100.00,SSE,168,0.0,8.0,18,-99.99,,,0.00,75.000000,,2013-10-22 01:52:00,
2013-10-21 19:02:00,71.0,25.0,-100.00,SSE,168,0.0,8.0,18,-99.99,,,0.00,75.000000,,2013-10-22 02:02:00,
2013-10-21 19:11:00,71.0,25.0,-100.00,SSE,168,0.0,8.0,18,-99.99,,,0.00,75.000000,,2013-10-22 02:11:00,
2013-10-21 19:22:00,71.0,25.0,-100.00,SSE,168,0.0,8.0,18,-99.99,,,0.00,75.000000,,2013-10-22 02:22:00,
2013-10-21 19:52:00,68.0,23.0,-100.00,SE,135,2.0,7.0,18,0.00,,,0.00,1.000000,,2013-10-22 02:52:00,
2013-10-21 20:03:00,68.0,23.0,-100.00,SE,135,2.0,7.0,18,0.00,,,0.00,1.000000,,2013-10-22 03:03:00,
2013-10-21 20:12:00,68.0,23.0,-100.00,SE,135,2.0,7.0,18,0.00,,,0.00,1.000000,,2013-10-22 03:12:00,
2013-10-21 20:22:00,68.0,23.0,-100.00,SE,135,2.0,7.0,18,0.00,,,0.00,1.000000,,2013-10-22 03:22:00,
2013-10-21 20:55:00,65.0,22.0,-100.00,SE,139,0.0,7.0,19,0.00,,,0.00,0.000000,,2013-10-22 03:55:00,
2013-10-21 21:05:00,65.0,22.0,-100.00,SE,139,0.0,7.0,19,0.00,,,0.00,0.000000,,2013-10-22 04:05:00,
2013-10-21 21:13:00,65.0,22.0,-100.00,SE,139,0.0,7.0,19,0.00,,,0.00,0.000000,,2013-10-22 04:13:00,
2013-10-21 21:24:00,65.0,22.0,-100.00,SE,139,0.0,7.0,19,0.00,,,0.00,0.000000,,2013-10-22 04:24:00,
2013-10-21 21:55:00,60.0,19.0,-100.00,ESE,120,0.0,4.0,20,0.00,,,0.00,0.000000,,2013-10-22 04:55:00,
2013-10-21 22:04:00,60.0,19.0,-100.00,ESE,120,0.0,4.0,20,0.00,,,0.00,0.000000,,2013-10-22 05:04:00,
2013-10-21 22:13:00,60.0,19.0,-100.00,ESE,120,0.0,4.0,20,0.00,,,0.00,0.000000,,2013-10-22 05:13:00,
2013-10-21 22:22:00,60.0,19.0,-100.00,ESE,120,0.0,4.0,20,0.00,,,0.00,0.000000,,2013-10-22 05:22:00,
2013-10-21 23:22:00,57.0,17.0,-100.00,ESE,122,0.0,5.0,21,0.00,,,0.00,0.000000,,2013-10-22 06:22:00,